GW4546 Weather Reports


time (UTC)temp
F
wind
direction
speed
knots
gust
knots
rain 1hr
in
rain 24hr
in
rain mn
in
humidity
%
barometer
mb
20260906125624 73 163 0.9 1.7 0.00 0.39 0.39 99 1017.1
20260906125118 73 163 0.9 1.7 0.00 0.39 0.39 99 1017.1
20260906124614 73 168 0.0 0.0 0.00 0.39 0.39 99 1017.1
20260906124109 73 196 0.0 0.0 0.00 0.39 0.39 99 1017.0
20260906123608 72 172 0.0 0.0 0.00 0.39 0.39 99 1016.9
20260906123103 72 171 0.0 0.0 0.00 0.39 0.39 99 1016.9
20260906122602 71 166 0.0 0.0 0.00 0.39 0.39 99 1017.0
20260906122058 72 176 0.0 0.0 0.00 0.39 0.39 99 1016.9
20260906121554 72 168 0.0 0.0 0.00 0.39 0.39 99 1016.8
20260906121050 71 164 0.0 0.0 0.00 0.39 0.39 99 1016.7
20260906120546 71 171 0.0 0.0 0.00 0.39 0.39 99 1016.8
20260906120043 71 160 0.0 0.0 0.00 0.39 0.39 99 1016.7
20260906115542 71 159 0.0 0.0 0.00 0.39 0.39 99 1016.7
20260906115038 70 171 0.0 0.0 0.00 0.39 0.39 99 1016.3
20260906114532 70 174 0.0 0.0 0.00 0.39 0.39 99 1016.4
20260906114028 70 166 0.0 0.0 0.00 0.39 0.39 99 1016.3
20260906113527 70 165 0.0 0.0 0.00 0.39 0.39 99 1016.3
20260906113022 70 163 0.0 0.0 0.00 0.39 0.39 99 1016.1
20260906112517 70 169 0.0 0.0 0.00 0.39 0.39 99 1016.2
20260906112013 70 160 0.0 0.0 0.00 0.39 0.39 99 1015.9
20260906111507 70 138 0.0 0.0 0.00 0.39 0.39 99 1016.0
20260906111002 70 176 0.0 0.0 0.00 0.39 0.39 99 1015.7
20260906110456 70 132 0.0 0.0 0.00 0.39 0.39 99 1015.7
20260906105955 70 174 0.0 0.0 0.00 0.39 0.39 99 1015.8
20260906105452 71 174 0.0 0.0 0.00 0.39 0.39 99 1015.7
20260906104948 71 169 0.0 0.0 0.00 0.39 0.39 99 1015.7
20260906104446 71 173 0.0 0.0 0.00 0.39 0.39 99 1015.8
20260906103945 71 175 0.0 0.0 0.00 0.39 0.39 99 1015.7
20260906103444 71 175 0.0 0.0 0.00 0.39 0.39 99 1016.0
20260906102939 71 172 0.0 0.0 0.00 0.39 0.39 99 1016.0
20260906102438 71 173 0.0 0.0 0.00 0.39 0.39 99 1015.9
20260906101933 71 173 0.0 0.0 0.00 0.39 0.39 99 1016.0
20260906101429 71 173 0.0 0.0 0.00 0.39 0.39 99 1016.0
20260906100924 71 174 0.0 0.0 0.00 0.39 0.39 99 1015.9
20260906100423 71 176 0.0 0.0 0.00 0.39 0.39 99 1016.0
20260906095918 71 174 0.0 0.0 0.00 0.39 0.39 99 1015.9
20260906095414 71 168 0.0 0.0 0.00 0.39 0.39 99 1015.9
20260906094913 71 179 0.0 0.0 0.00 0.39 0.39 99 1016.1
20260906094408 71 183 0.0 0.0 0.00 0.39 0.39 99 1015.9
20260906093904 71 172 0.0 0.0 0.00 0.39 0.39 99 1016.0
20260906093400 71 175 0.0 0.0 0.00 0.39 0.39 99 1016.1
20260906092855 71 172 0.0 0.0 0.00 0.39 0.39 98 1016.2
20260906092355 72 192 0.0 0.0 0.00 0.39 0.39 98 1016.1
20260906091850 72 149 0.0 0.9 0.00 0.39 0.39 98 1015.9
20260906091346 72 43 2.6 2.6 0.00 0.39 0.39 98 1016.1
20260906090842 72 181 1.7 1.7 0.00 0.39 0.39 98 1016.1
20260906090342 72 229 2.6 2.6 0.00 0.39 0.39 99 1016.2
20260906085836 72 178 0.9 0.9 0.00 0.39 0.39 99 1016.3
20260906085335 72 190 0.0 0.0 0.00 0.39 0.39 99 1015.8
20260906084830 72 190 0.9 0.9 0.00 0.39 0.39 99 1015.7
20260906084330 71 186 0.0 0.0 0.00 0.39 0.39 99 1015.7
20260906083825 72 184 0.9 0.9 0.00 0.39 0.39 99 1015.8
20260906083320 72 175 0.0 0.0 0.00 0.39 0.39 99 1015.9
20260906082814 72 171 0.0 0.0 0.00 0.39 0.39 99 1015.7
20260906082310 72 174 0.0 0.0 0.00 0.39 0.39 99 1016.0
20260906081805 72 196 0.0 0.0 0.00 0.39 0.39 99 1015.6
20260906081301 72 173 0.0 0.0 0.00 0.39 0.39 99 1015.8
20260906080757 72 185 0.0 0.0 0.00 0.39 0.39 99 1015.7
20260906080253 72 177 0.0 0.0 0.00 0.39 0.39 99 1016.4
20260906075747 72 176 0.0 0.0 0.00 0.39 0.39 99 1016.2
20260906075247 72 173 0.0 0.0 0.00 0.39 0.39 99 1016.1
20260906074743 72 171 0.0 0.0 0.00 0.39 0.39 99 1016.0
20260906074242 72 175 0.0 0.0 0.00 0.39 0.39 99 1016.3
20260906073742 73 178 0.0 0.0 0.07 0.39 0.39 98 1016.3
20260906073236 73 177 0.0 0.0 0.07 0.39 0.39 98 1016.3
20260906072732 73 165 0.0 0.0 0.05 0.38 0.38 98 1016.9
20260906072228 73 182 0.0 0.0 0.05 0.38 0.38 98 1017.0
20260906071724 73 111 1.7 2.6 0.00 0.37 0.37 97 1017.2
20260906071224 73 119 0.0 0.9 0.00 0.37 0.37 98 1017.0
20260906070720 72 170 0.0 0.0 0.19 0.37 0.37 97 1016.9
20260906070215 72 190 1.7 1.7 0.42 0.37 0.37 97 1017.3
20260906065715 73 178 0.9 0.9 0.47 0.35 0.35 96 1017.9
20260906065210 73 134 0.0 0.9 0.54 0.31 0.31 96 1018.0
20260906064706 73 3 3.5 5.2 0.80 0.27 0.27 96 1017.8
20260906064201 73 326 5.2 7.8 0.97 0.22 0.22 95 1017.9
20260906063656 73 231 4.3 6.1 0.83 0.14 0.14 95 1017.8
20260906063152 75 5 4.3 7.0 0.35 0.06 0.06 92 1017.9
20260906062648 78 358 7.0 9.6 0.00 0.00 0.00 83 1017.9
20260906062146 78 28 3.5 3.5 0.00 0.00 0.00 81 1017.7
20260906061643 78 46 3.5 3.5 0.00 0.00 0.00 83 1017.5
20260906061142 77 70 1.7 1.7 0.00 0.00 0.00 86 1017.7
20260906060639 76 57 2.6 2.6 0.00 0.00 0.00 88 1017.2
20260906060136 75 19 3.5 3.5 0.00 0.00 0.00 90 1016.8
20260906055631 75 65 1.7 1.7 0.00 0.00 0.00 91 1016.4
20260906055126 74 177 0.0 0.0 0.00 0.00 0.00 92 1016.2
20260906054621 74 180 0.0 0.0 0.00 0.00 0.00 92 1015.9
20260906054116 74 171 0.0 0.0 0.00 0.00 0.00 92 1016.0
20260906053613 74 166 0.0 0.0 0.00 0.00 0.00 92 1016.2
20260906053108 74 174 0.0 0.0 0.00 0.00 0.00 92 1016.1
20260906052604 74 169 0.0 0.0 0.00 0.00 0.00 92 1016.2
20260906052100 74 159 0.0 0.0 0.00 0.00 0.00 92 1016.1
20260906051556 74 163 0.0 0.0 0.00 0.00 0.00 92 1016.1
20260906051051 74 170 0.0 0.0 0.00 0.00 0.00 92 1015.8
20260906050546 74 173 0.0 0.9 0.00 0.00 0.00 91 1015.9
20260906050041 74 94 0.9 1.7 0.00 0.00 0.00 91 1015.8
20260906045539 74 155 0.0 0.9 0.00 0.00 0.00 91 1015.5
20260906045035 74 137 0.9 0.9 0.00 0.00 0.00 91 1015.7
20260906044531 74 141 0.9 0.9 0.00 0.00 0.00 91 1016.0
20260906044026 74 154 0.0 0.0 0.00 0.00 0.00 90 1016.0
20260906043521 74 142 0.9 0.9 0.00 0.00 0.00 91 1016.0
20260906043018 74 175 0.0 0.0 0.00 0.00 0.00 91 1016.0
20260906042517 74 171 0.0 0.0 0.00 0.00 0.00 90 1016.0
20260906042017 74 139 0.0 0.9 0.00 0.00 0.00 90 1016.2
20260906041513 74 170 0.0 0.0 0.00 0.00 0.00 90 1016.1
20260906041013 75 173 0.0 0.0 0.00 0.00 0.00 89 1016.1
20260906040508 75 174 0.0 0.0 0.00 0.00 0.00 89 1016.3
20260906040003 75 178 0.0 0.0 0.00 0.00 0.00 88 1016.4
20260906035458 75 123 0.9 0.9 0.00 0.00 0.00 89 1016.2
20260906034954 74 142 0.0 0.0 0.00 0.00 0.00 89 1016.2
20260906034454 74 173 0.0 0.0 0.00 0.00 0.00 89 1016.2
20260906033950 75 173 0.0 0.0 0.00 0.00 0.00 88 1016.1
20260906033450 75 173 0.0 0.0 0.00 0.00 0.00 87 1016.3
20260906032946 76 170 0.0 0.0 0.00 0.00 0.00 86 1016.2
20260906032442 76 165 0.0 0.9 0.00 0.00 0.00 85 1016.2
20260906031936 76 155 1.7 1.7 0.00 0.00 0.00 85 1016.0
20260906031432 76 125 0.0 0.0 0.00 0.00 0.00 85 1015.9
20260906030927 76 157 0.0 0.0 0.00 0.00 0.00 85 1016.1
20260906030421 76 151 0.0 0.0 0.00 0.00 0.00 85 1015.9
20260906025916 76 155 0.9 0.9 0.00 0.00 0.00 85 1015.8
20260906025410 76 136 0.9 0.9 0.00 0.00 0.00 84 1015.6
20260906024909 77 176 0.0 0.0 0.00 0.00 0.00 83 1015.8
20260906024408 77 134 0.9 0.9 0.00 0.00 0.00 83 1015.7
20260906023904 76 138 0.9 0.9 0.00 0.00 0.00 84 1015.8
20260906023400 76 168 0.0 0.0 0.00 0.00 0.00 84 1015.7
20260906022855 76 168 0.0 0.0 0.00 0.00 0.00 84 1015.7
20260906022349 76 168 0.0 0.0 0.00 0.00 0.00 83 1015.5
20260906021845 77 164 0.0 0.0 0.00 0.00 0.00 82 1015.7
20260906021344 77 178 0.0 0.0 0.00 0.00 0.00 82 1015.5
20260906020839 77 164 0.0 0.0 0.00 0.00 0.00 81 1015.3
20260906020339 77 161 0.0 0.9 0.00 0.00 0.00 81 1015.2
20260906015833 77 161 0.0 0.0 0.00 0.00 0.00 81 1015.2
20260906015332 77 173 0.0 0.0 0.00 0.00 0.00 80 1015.0
20260906014827 77 173 0.0 0.0 0.00 0.00 0.00 80 1015.1
20260906014322 77 173 0.0 0.0 0.00 0.00 0.00 79 1015.1
20260906013818 78 170 0.0 0.0 0.00 0.00 0.00 79 1014.9
20260906013313 78 178 0.0 0.0 0.00 0.00 0.00 78 1014.9
20260906012809 78 174 0.0 0.9 0.00 0.00 0.00 77 1014.9
20260906012309 79 170 0.0 0.0 0.00 0.00 0.00 76 1015.0
20260906011804 79 176 0.0 0.0 0.00 0.00 0.00 75 1014.9
20260906011304 80 173 0.9 0.9 0.00 0.00 0.00 74 1015.1
20260906010800 80 144 0.9 0.9 0.00 0.00 0.00 73 1015.0
20260906010255 80 175 0.0 0.0 0.00 0.00 0.00 74 1015.0
20260906005751 79 150 0.0 0.9 0.00 0.00 0.00 74 1014.9
20260906005250 80 174 0.0 0.0 0.00 0.00 0.00 72 1014.8
20260906004749 80 174 0.0 0.0 0.00 0.00 0.00 71 1014.9
20260906004244 80 174 0.0 0.0 0.00 0.00 0.00 70 1014.7
20260906003738 81 175 0.0 0.0 0.00 0.00 0.00 70 1014.7
20260906003234 81 175 0.0 0.0 0.00 0.00 0.00 69 1014.8
20260906002729 82 175 0.0 0.0 0.00 0.00 0.00 68 1014.9
20260906002228 82 168 0.0 0.0 0.00 0.00 0.00 67 1014.9
20260906001724 83 170 0.0 0.0 0.00 0.00 0.00 66 1014.9
20260906001220 83 161 1.7 2.6 0.00 0.00 0.00 64 1014.8
20260906000715 84 173 0.0 0.0 0.00 0.00 0.00 63 1014.9
20260906000212 84 165 0.0 0.0 0.00 0.00 0.00 62 1014.7
20260905235709 85 103 0.9 0.9 0.00 0.00 0.00 60 1014.8
20260905235204 85 144 0.9 0.9 0.00 0.00 0.00 61 1015.0
20260905234700 85 173 0.0 0.0 0.00 0.00 0.00 60 1015.1
20260905234155 86 167 0.9 1.7 0.00 0.00 0.00 59 1014.8
20260905233650 86 135 0.9 0.9 0.00 0.00 0.00 58 1015.1
20260905233149 87 69 2.6 3.5 0.00 0.00 0.00 58 1015.2
20260905232644 87 113 3.5 5.2 0.00 0.00 0.00 57 1015.0
20260905232140 87 56 3.5 5.2 0.00 0.00 0.00 55 1015.3
20260905231635 88 237 1.7 2.6 0.00 0.00 0.00 54 1015.0
20260905231131 89 52 1.7 2.6 0.00 0.00 0.00 53 1015.2
20260905230627 90 53 4.3 6.1 0.00 0.00 0.00 51 1015.2
20260905230125 91 21 5.2 6.1 0.00 0.00 0.00 50 1015.2
20260905225624 92 51 4.3 6.1 0.00 0.00 0.00 49 1014.9
20260905225119 93 159 1.7 2.6 0.00 0.00 0.00 48 1014.8
20260905224613 94 310 1.7 1.7 0.00 0.00 0.00 47 1014.6
20260905224112 95 0 2.6 2.6 0.00 0.00 0.00 46 1014.6
20260905223610 96 76 1.7 3.5 0.00 0.00 0.00 45 1014.6
20260905223106 99 180 2.6 3.5 0.00 0.00 0.00 44 1014.8
20260905222606 100 128 0.9 1.7 0.00 0.00 0.00 43 1014.4
20260905222056 99 173 1.7 1.7 0.00 0.00 0.00 45 1014.4
20260905221552 100 169 0.0 0.9 0.00 0.00 0.00 43 1014.2
20260905221048 99 176 0.0 0.0 0.00 0.00 0.00 44 1014.3
20260905220543 99 10 2.6 3.5 0.00 0.00 0.00 45 1014.3
20260905220039 100 207 1.7 2.6 0.00 0.00 0.00 43 1014.2
20260905215539 99 190 1.7 2.6 0.00 0.00 0.00 44 1014.2
20260905215035 99 29 0.9 0.9 0.00 0.00 0.00 44 1014.1
20260905214530 99 167 1.7 1.7 0.00 0.00 0.00 44 1014.3
20260905214026 99 248 2.6 3.5 0.00 0.00 0.00 44 1014.2
20260905213521 99 222 3.5 3.5 0.00 0.00 0.00 44 1014.2
20260905213016 100 243 1.7 2.6 0.00 0.00 0.00 43 1014.3
20260905212511 100 193 0.0 0.9 0.00 0.00 0.00 43 1014.4
20260905212010 100 170 1.7 1.7 0.00 0.00 0.00 44 1014.4
20260905211506 100 221 3.5 5.2 0.00 0.00 0.00 43 1014.4
20260905211001 100 301 0.9 1.7 0.00 0.00 0.00 46 1014.3
20260905210457 100 212 0.9 1.7 0.00 0.00 0.00 46 1014.2
20260905205955 99 353 2.6 2.6 0.00 0.00 0.00 47 1014.2
20260905205451 99 295 3.5 3.5 0.00 0.00 0.00 46 1014.2
20260905204949 100 234 3.5 3.5 0.00 0.00 0.00 45 1014.3
20260905204445 100 15 3.5 3.5 0.00 0.00 0.00 47 1014.3
20260905203944 100 303 0.9 0.9 0.00 0.00 0.00 44 1014.3
20260905203440 98 172 0.0 0.9 0.00 0.00 0.00 46 1014.5
20260905202935 98 135 0.9 1.7 0.00 0.00 0.00 45 1014.5
20260905202431 100 109 3.5 5.2 0.00 0.00 0.00 43 1014.5
20260905201926 102 352 2.6 3.5 0.00 0.00 0.00 43 1014.6
20260905201421 100 148 1.7 1.7 0.00 0.00 0.00 43 1014.9
20260905200920 99 236 1.7 1.7 0.00 0.00 0.00 46 1015.0
20260905200417 99 195 1.7 2.6 0.00 0.00 0.00 45 1015.0
20260905195914 99 69 2.6 3.5 0.00 0.00 0.00 44 1014.9
20260905195410 100 146 0.9 1.7 0.00 0.00 0.00 44 1015.1
20260905194906 100 34 1.7 1.7 0.00 0.00 0.00 44 1015.2
20260905194400 101 109 4.3 5.2 0.00 0.00 0.00 44 1015.4
20260905193859 100 171 0.9 0.9 0.00 0.00 0.00 45 1015.4
20260905193354 99 209 1.7 3.5 0.00 0.00 0.00 47 1015.4
20260905192850 98 318 3.5 3.5 0.00 0.00 0.00 48 1015.5
20260905192345 99 316 2.6 2.6 0.00 0.00 0.00 48 1015.5
20260905191844 100 164 3.5 5.2 0.00 0.00 0.00 44 1015.7
20260905191344 99 197 1.7 1.7 0.00 0.00 0.00 46 1015.5
20260905190843 100 302 2.6 2.6 0.00 0.00 0.00 45 1015.6
20260905190336 100 68 3.5 5.2 0.00 0.00 0.00 46 1015.9
20260905185835 99 320 2.6 5.2 0.00 0.00 0.00 46 1015.9
20260905185330 99 323 3.5 5.2 0.00 0.00 0.00 45 1016.0
20260905184824 100 354 4.3 6.1 0.00 0.00 0.00 45 1016.0
20260905184323 99 353 3.5 3.5 0.00 0.00 0.00 47 1016.3
20260905183821 99 213 0.9 1.7 0.00 0.00 0.00 49 1016.3
20260905183317 100 92 2.6 2.6 0.00 0.00 0.00 45 1016.5
20260905182812 99 176 0.0 0.9 0.00 0.00 0.00 47 1016.4
20260905182311 100 321 3.5 3.5 0.00 0.00 0.00 46 1016.3
20260905181807 99 332 4.3 5.2 0.00 0.00 0.00 47 1016.4
20260905181306 100 148 2.6 2.6 0.00 0.00 0.00 48 1016.5
20260905180801 100 180 1.7 2.6 0.00 0.00 0.00 45 1016.5
20260905180255 98 289 3.5 3.5 0.00 0.00 0.00 47 1016.5
20260905175749 98 30 3.5 3.5 0.00 0.00 0.00 47 1016.5
20260905175244 98 8 4.3 6.1 0.00 0.00 0.00 49 1016.7
20260905174739 97 249 0.9 0.9 0.00 0.00 0.00 48 1016.8
20260905174235 97 220 2.6 5.2 0.00 0.00 0.00 50 1016.5
20260905173731 97 315 4.3 5.2 0.00 0.00 0.00 50 1016.7
20260905173227 97 175 0.0 0.0 0.00 0.00 0.00 49 1016.9
20260905172721 96 195 1.7 1.7 0.00 0.00 0.00 51 1016.9
20260905172220 95 173 0.0 0.0 0.00 0.00 0.00 54 1017.0
20260905171716 96 170 0.0 0.9 0.00 0.00 0.00 54 1017.1
20260905171213 97 349 6.1 7.0 0.00 0.00 0.00 54 1017.1
20260905170710 97 52 1.7 1.7 0.00 0.00 0.00 53 1017.0
20260905170209 96 35 3.5 3.5 0.00 0.00 0.00 53 1017.3
20260905165704 95 3 2.6 2.6 0.00 0.00 0.00 55 1017.4
20260905165159 95 187 1.7 1.7 0.00 0.00 0.00 56 1017.3
20260905164654 95 176 1.7 1.7 0.00 0.00 0.00 56 1017.4
20260905164153 95 175 3.5 5.2 0.00 0.00 0.00 56 1017.5
20260905163649 95 29 3.5 5.2 0.00 0.00 0.00 56 1017.4
20260905163146 94 216 1.7 2.6 0.00 0.00 0.00 57 1017.6
20260905162642 95 64 2.6 2.6 0.00 0.00 0.00 56 1017.6
20260905162141 95 346 1.7 2.6 0.00 0.00 0.00 56 1017.6
20260905161640 94 167 0.9 1.7 0.00 0.00 0.00 57 1018.0
20260905161138 95 45 1.7 2.6 0.00 0.00 0.00 56 1018.1
20260905160633 94 183 0.0 0.9 0.00 0.00 0.00 56 1018.0
20260905160126 94 338 3.5 3.5 0.00 0.00 0.00 59 1018.1
20260905155621 94 190 3.5 3.5 0.00 0.00 0.00 57 1018.0
20260905155120 93 167 0.0 0.9 0.00 0.00 0.00 59 1018.0
20260905154619 93 16 3.5 5.2 0.00 0.00 0.00 59 1018.2
20260905154115 92 260 1.7 2.6 0.00 0.00 0.00 61 1018.1
20260905153611 92 117 1.7 1.7 0.00 0.00 0.00 61 1018.3
20260905153106 93 171 1.7 1.7 0.00 0.00 0.00 59 1018.0
20260905152601 92 188 0.0 0.9 0.00 0.00 0.00 62 1018.1
20260905152055 91 224 0.9 0.9 0.00 0.00 0.00 63 1018.0
20260905151551 92 173 0.9 0.9 0.00 0.00 0.00 64 1018.2
20260905151046 91 159 0.0 0.9 0.00 0.00 0.00 63 1018.2
20260905150541 92 0 0.9 1.7 0.00 0.00 0.00 62 1018.1
20260905150039 91 172 0.9 0.9 0.00 0.00 0.00 65 1018.2
20260905145532 91 171 0.0 0.0 0.00 0.00 0.00 65 1018.3
20260905145032 89 180 0.0 0.9 0.00 0.00 0.00 68 1018.3
20260905144522 91 202 2.6 2.6 0.00 0.00 0.00 66 1018.4
20260905144021 90 165 0.9 1.7 0.00 0.00 0.00 65 1018.3
20260905143520 88 175 0.0 0.9 0.00 0.00 0.00 69 1018.3
20260905143015 88 192 0.9 1.7 0.00 0.00 0.00 70 1018.3
20260905142514 88 139 0.0 0.0 0.00 0.00 0.00 69 1018.4
20260905142009 88 175 0.0 0.0 0.00 0.00 0.00 71 1018.5
20260905141503 88 173 0.9 0.9 0.00 0.00 0.00 71 1018.5
20260905141000 87 167 0.0 0.9 0.00 0.00 0.00 73 1018.5
20260905140455 86 165 0.0 0.9 0.00 0.00 0.00 75 1018.6
20260905135953 86 187 0.9 0.9 0.00 0.00 0.00 77 1018.7
20260905135449 86 169 0.0 0.0 0.00 0.00 0.00 75 1018.6
20260905134944 86 172 0.0 0.9 0.00 0.00 0.00 74 1018.6